Location: Powder Track
(41.8531°N, 72.3584°W)
Time: 00:37:06
(UTC+00:00)

Vanguard 2 Rocket - Pass Details

Date: 04 August 2021
Orbit: 556 x 3324 km, 32.9° (Epoch: 22 September)

Event Time Altitude Azimuth Distance (km) Brightness Sun altitude
Rises 13:37:25 0° 254° (WSW) 2,778 9.0 41.2°
Reaches altitude 10° 13:39:57 10° 239° (WSW) 1,827 8.3 41.6°
Maximum altitude 13:43:08 23° 184° (S) 1,218 8.0 42.2°
Drops below altitude 10° 13:46:40 10° 130° (SE) 2,040 9.7 42.8°
Sets 13:49:42 0° 116° (ESE) 3,201 10.5 43.3°
